Terug naar catalogus

ESIAFI 1

COMSTAR 4

ActiefCommunicatieGEO
NORAD 12309·PAYLOAD·🇺🇸 United States

Gelanceerd Feb 21, 1981 vanaf Cape Canaveral Space Force Station

Loading…

TLE

VersSource: Space-Track

Epoch: Sep 13, 2026, 16:28 UTC

1 12309U 81018A   26256.68622691 -.00000072  00000-0  00000-0 0  9994
2 12309   8.5356 310.6773 0001599  75.1282 284.8373  1.00281564168333

Volg ESIAFI 1 in realtime met AllMySat

Download on the App Store